Regional Weather Roundup
Issued by NWS

Home | Current Version | Previous Version | Text Only | Print | Product List | Glossary On
Versions: 1 2 3 4 5 6 7 8 9 10 11 12 13 14 15 16 17 18 19 20 21 22 23 24 25 26 27 28 29 30 31 32 33 34 35 36 37 38 39 40 41 42 43 44 45 46 47 48 49 50
000
ASUS43 KLMK 220102
RWRKY
KENTUCKY REGIONAL WEATHER ROUNDUP
NATIONAL WEATHER SERVICE LOUISVILLE KY
900 PM EDT MON MAY 21 2018

NOTE "FAIR" INDICATES FEW OR NO CLOUDS BELOW 12,000 FEET
WITH NO SIGNIFICANT WEATHER AND/OR OBSTRUCTIONS TO VISIBILITY.

KYZ001>023-026-027-061>063-070>075-220200-
WESTERN AND SOUTH CENTRAL KENTUCKY

CITY           SKY/WX    TMP DP  RH WIND       PRES   REMARKS
PADUCAH        FAIR      77  70  79 SE3       29.99S
HENDERSON      NOT AVBL
OWENSBORO      FAIR      73  69  87 SE3       30.03R
HOPKINSVILLE   CLEAR     75  68  77 SE3       30.03S
BOWLING GREEN  FAIR      70  69  97 W5        30.04S
GLASGOW        NOT AVBL
$$

KYZ024-025-028>034-038-045-046-053-220200-
NORTH CENTRAL KENTUCKY

CITY           SKY/WX    TMP DP  RH WIND       PRES   REMARKS
LOUISVILLE/SDF CLOUDY    76  65  68 NW9       30.03R
LOUISVILLE/LOU FAIR      75  67  76 N3        30.04R
FORT KNOX      CLOUDY    73  64  75 W6        30.05R
$$

KYZ035>037-039>044-047>052-055>060-089>105-220200-
NORTHEAST KENTUCKY

CITY           SKY/WX    TMP DP  RH WIND       PRES   REMARKS
LEXINGTON      FAIR      72  66  81 S6        30.05S
COVINGTON      TSTM      68  66  93 NW25G36   30.04R FOG
FRANKFORT      FAIR      75  64  68 S7        30.03R
$$

KYZ054-064>069-076>088-106>120-220200-
SOUTHEAST KENTUCKY

CITY           SKY/WX    TMP DP  RH WIND       PRES   REMARKS
JACKSON        CLOUDY    73  66  78 SE5       30.09S
LONDON         FAIR      73  67  81 E3        30.08R
SOMERSET       NOT AVBL
MIDDLESBORO    FAIR      73  65  74 S3        30.11R
MONTICELLO     FAIR      73  70  90 W9        30.08R
$$




USA.gov is the U.S. government's official web portal to all federal, state and local government web resources and services.